| time (UTC) | temp C | wind direction | speed KPH | gust KPH | rain 1hr cm | rain 24hr cm | rain mn cm | humidity % | barometer mb |
| 20260906224521 | 36 | 126 | 3.2 | 16.1 | 0.00 | 0.00 | 0.00 | 34 | 1009.1 |
| 20260906223020 | 37 | 70 | 11.3 | 17.7 | 0.00 | 0.00 | 0.00 | 33 | 1009.2 |
| 20260906221518 | 37 | 144 | 4.8 | 16.1 | 0.00 | 0.00 | 0.00 | 33 | 1009.4 |
| 20260906220017 | 37 | 161 | 8.0 | 14.5 | 0.00 | 0.00 | 0.00 | 34 | 1009.5 |
| 20260906214523 | 37 | 115 | 8.0 | 17.7 | 0.00 | 0.00 | 0.00 | 33 | 1009.6 |
| 20260906213014 | 37 | 67 | 8.0 | 16.1 | 0.00 | 0.00 | 0.00 | 36 | 1009.8 |
| 20260906211511 | 37 | 25 | 8.0 | 17.7 | 0.00 | 0.00 | 0.00 | 35 | 1010.0 |
| 20260906210018 | 37 | 23 | 6.4 | 20.9 | 0.00 | 0.00 | 0.00 | 34 | 1010.2 |
| 20260906204509 | 36 | 105 | 6.4 | 20.9 | 0.00 | 0.00 | 0.00 | 34 | 1010.4 |
| 20260906203006 | 36 | 139 | 4.8 | 11.3 | 0.00 | 0.00 | 0.00 | 36 | 1010.5 |
| 20260906201506 | 37 | 91 | 8.0 | 16.1 | 0.00 | 0.00 | 0.00 | 33 | 1010.7 |
| 20260906200004 | 37 | 105 | 8.0 | 17.7 | 0.00 | 0.00 | 0.00 | 35 | 1010.7 |
| 20260906194502 | 37 | 110 | 6.4 | 19.3 | 0.00 | 0.00 | 0.00 | 36 | 1010.9 |
| 20260906193101 | 36 | 126 | 8.0 | 19.3 | 0.00 | 0.00 | 0.00 | 36 | 1011.0 |
| 20260906191559 | 36 | 146 | 4.8 | 17.7 | 0.00 | 0.00 | 0.00 | 38 | 1011.3 |
| 20260906190057 | 36 | 9 | 4.8 | 24.1 | 0.00 | 0.00 | 0.00 | 37 | 1011.3 |
| 20260906184559 | 36 | 241 | 9.7 | 17.7 | 0.00 | 0.00 | 0.00 | 39 | 1011.6 |
| 20260906183055 | 35 | 179 | 4.8 | 16.1 | 0.00 | 0.00 | 0.00 | 39 | 1011.7 |
| 20260906181555 | 35 | 173 | 8.0 | 19.3 | 0.00 | 0.00 | 0.00 | 38 | 1012.0 |
| 20260906180053 | 35 | 127 | 6.4 | 16.1 | 0.00 | 0.00 | 0.00 | 39 | 1012.2 |
| 20260906174551 | 35 | 148 | 8.0 | 16.1 | 0.00 | 0.00 | 0.00 | 39 | 1012.3 |
| 20260906173052 | 35 | 115 | 6.4 | 16.1 | 0.00 | 0.00 | 0.00 | 43 | 1012.7 |
| 20260906171542 | 34 | 113 | 4.8 | 17.7 | 0.00 | 0.00 | 0.00 | 44 | 1012.8 |
| 20260906170042 | 34 | 106 | 4.8 | 17.7 | 0.00 | 0.00 | 0.00 | 45 | 1013.0 |
| 20260906164536 | 34 | 114 | 3.2 | 11.3 | 0.00 | 0.00 | 0.00 | 47 | 1013.1 |
| 20260906163033 | 33 | 40 | 4.8 | 14.5 | 0.00 | 0.00 | 0.00 | 47 | 1013.2 |
| 20260906161531 | 33 | 101 | 8.0 | 17.7 | 0.00 | 0.00 | 0.00 | 50 | 1013.2 |
| 20260906160035 | 32 | 98 | 4.8 | 12.9 | 0.00 | 0.00 | 0.00 | 54 | 1013.1 |
| 20260906154536 | 32 | 19 | 1.6 | 11.3 | 0.00 | 0.00 | 0.00 | 57 | 1013.3 |
| 20260906153019 | 31 | 119 | 4.8 | 11.3 | 0.00 | 0.00 | 0.00 | 59 | 1013.2 |
| 20260906151511 | 30 | 225 | 3.2 | 9.7 | 0.00 | 0.00 | 0.00 | 61 | 1013.0 |
| 20260906150017 | 30 | 128 | 1.6 | 11.3 | 0.00 | 0.00 | 0.00 | 63 | 1012.9 |
| 20260906144502 | 29 | 171 | 3.2 | 9.7 | 0.00 | 0.00 | 0.00 | 64 | 1012.8 |
| 20260906143113 | 29 | 120 | 1.6 | 6.4 | 0.00 | 0.00 | 0.00 | 65 | 1012.8 |
| 20260906141556 | 28 | 162 | 3.2 | 8.0 | 0.00 | 0.00 | 0.00 | 66 | 1012.9 |
| 20260906140050 | 28 | 162 | 3.2 | 8.0 | 0.00 | 0.00 | 0.00 | 67 | 1012.8 |
| 20260906134552 | 27 | 162 | 1.6 | 4.8 | 0.00 | 0.00 | 0.00 | 70 | 1012.7 |
| 20260906133047 | 27 | 162 | 1.6 | 8.0 | 0.00 | 0.00 | 0.00 | 72 | 1012.6 |
| 20260906131547 | 26 | 162 | 0.0 | 1.6 | 0.00 | 0.00 | 0.00 | 77 | 1012.8 |
| 20260906130041 | 24 | 162 | 0.0 | 0.0 | 0.00 | 0.00 | 0.00 | 83 | 1012.7 |
| 20260906124529 | 23 | 162 | 0.0 | 1.6 | 0.00 | 0.00 | 0.00 | 83 | 1012.6 |
| 20260906123032 | 23 | 161 | 0.0 | 0.0 | 0.00 | 0.00 | 0.00 | 81 | 1012.5 |
| 20260906121521 | 23 | 161 | 0.0 | 0.0 | 0.00 | 0.00 | 0.00 | 80 | 1012.3 |
| 20260906120018 | 23 | 161 | 0.0 | 0.0 | 0.00 | 0.00 | 0.00 | 80 | 1012.2 |
| 20260906114515 | 24 | 161 | 0.0 | 0.0 | 0.00 | 0.00 | 0.00 | 79 | 1012.1 |
| 20260906113012 | 24 | 161 | 0.0 | 0.0 | 0.00 | 0.00 | 0.00 | 78 | 1012.0 |
| 20260906111519 | 24 | 161 | 0.0 | 0.0 | 0.00 | 0.00 | 0.00 | 78 | 1011.6 |
| 20260906110013 | 25 | 161 | 0.0 | 1.6 | 0.00 | 0.00 | 0.00 | 77 | 1011.5 |
| 20260906104512 | 25 | 161 | 0.0 | 0.0 | 0.00 | 0.00 | 0.00 | 76 | 1011.4 |
| 20260906103004 | 25 | 161 | 0.0 | 0.0 | 0.00 | 0.00 | 0.00 | 75 | 1011.6 |
| 20260906101502 | 25 | 161 | 0.0 | 1.6 | 0.00 | 0.00 | 0.00 | 74 | 1011.4 |
| 20260906094558 | 26 | 161 | 0.0 | 0.0 | 0.00 | 0.00 | 0.00 | 73 | 1011.2 |
| 20260906093115 | 26 | 161 | 0.0 | 3.2 | 0.00 | 0.00 | 0.00 | 73 | 1011.0 |
| 20260906091557 | 26 | 161 | 0.0 | 4.8 | 0.00 | 0.00 | 0.00 | 73 | 1010.8 |
| 20260906090104 | 26 | 161 | 0.0 | 3.2 | 0.00 | 0.00 | 0.00 | 73 | 1010.8 |
| 20260906084554 | 26 | 161 | 0.0 | 4.8 | 0.00 | 0.00 | 0.00 | 72 | 1010.7 |
| 20260906083053 | 26 | 161 | 0.0 | 1.6 | 0.00 | 0.00 | 0.00 | 71 | 1010.6 |
| 20260906081554 | 26 | 161 | 0.0 | 3.2 | 0.00 | 0.00 | 0.00 | 71 | 1010.7 |
| 20260906080049 | 27 | 161 | 0.0 | 3.2 | 0.00 | 0.00 | 0.00 | 70 | 1011.0 |
| 20260906074547 | 27 | 161 | 0.0 | 0.0 | 0.00 | 0.00 | 0.00 | 70 | 1011.2 |
| 20260906073045 | 27 | 161 | 0.0 | 1.6 | 0.00 | 0.00 | 0.00 | 69 | 1011.2 |
| 20260906071554 | 27 | 161 | 0.0 | 4.8 | 0.00 | 0.00 | 0.00 | 68 | 1011.1 |
| 20260906070040 | 27 | 165 | 0.0 | 1.6 | 0.00 | 0.00 | 0.00 | 67 | 1011.1 |
| 20260906064541 | 28 | 165 | 0.0 | 1.6 | 0.00 | 0.00 | 0.00 | 65 | 1011.3 |
| 20260906063035 | 28 | 165 | 0.0 | 1.6 | 0.00 | 0.00 | 0.00 | 65 | 1011.3 |
| 20260906061533 | 28 | 165 | 0.0 | 3.2 | 0.00 | 0.00 | 0.00 | 64 | 1011.3 |
| 20260906060030 | 28 | 165 | 0.0 | 1.6 | 0.00 | 0.00 | 0.00 | 63 | 1011.4 |
| 20260906054528 | 29 | 165 | 0.0 | 6.4 | 0.00 | 0.00 | 0.00 | 62 | 1011.4 |
| 20260906053030 | 29 | 153 | 1.6 | 6.4 | 0.00 | 0.00 | 0.00 | 62 | 1011.4 |
| 20260906051531 | 29 | 165 | 1.6 | 8.0 | 0.00 | 0.00 | 0.00 | 61 | 1011.5 |
| 20260906050046 | 30 | 161 | 3.2 | 6.4 | 0.00 | 0.00 | 0.00 | 61 | 1011.5 |
| 20260906044521 | 30 | 167 | 1.6 | 6.4 | 0.00 | 0.00 | 0.00 | 60 | 1011.4 |
| 20260906043021 | 30 | 180 | 0.0 | 8.0 | 0.00 | 0.00 | 0.00 | 60 | 1011.2 |
| 20260906041520 | 30 | 139 | 1.6 | 4.8 | 0.00 | 0.00 | 0.00 | 59 | 1011.2 |
| 20260906040019 | 30 | 115 | 3.2 | 11.3 | 0.00 | 0.00 | 0.00 | 59 | 1011.2 |
| 20260906034527 | 31 | 109 | 4.8 | 11.3 | 0.00 | 0.00 | 0.00 | 58 | 1011.2 |
| 20260906033024 | 31 | 122 | 8.0 | 16.1 | 0.00 | 0.00 | 0.00 | 56 | 1011.4 |
| 20260906031520 | 31 | 137 | 4.8 | 12.9 | 0.00 | 0.00 | 0.00 | 55 | 1011.3 |
| 20260906030018 | 31 | 134 | 3.2 | 11.3 | 0.00 | 0.00 | 0.00 | 54 | 1011.2 |
| 20260906024515 | 31 | 125 | 3.2 | 11.3 | 0.00 | 0.00 | 0.00 | 52 | 1011.0 |
| 20260906023016 | 32 | 116 | 3.2 | 14.5 | 0.00 | 0.00 | 0.00 | 51 | 1010.7 |
| 20260906021513 | 32 | 92 | 8.0 | 19.3 | 0.00 | 0.00 | 0.00 | 49 | 1010.6 |
| 20260906020013 | 33 | 134 | 11.3 | 25.7 | 0.00 | 0.00 | 0.00 | 46 | 1010.3 |
| 20260906014513 | 33 | 113 | 1.6 | 6.4 | 0.00 | 0.00 | 0.00 | 42 | 1009.9 |
| 20260906013012 | 33 | 100 | 0.0 | 4.8 | 0.00 | 0.00 | 0.00 | 40 | 1009.6 |
| 20260906011511 | 34 | 100 | 0.0 | 8.0 | 0.00 | 0.00 | 0.00 | 39 | 1009.4 |
| 20260906010010 | 35 | 107 | 1.6 | 4.8 | 0.00 | 0.00 | 0.00 | 37 | 1009.3 |
| 20260906004510 | 35 | 107 | 0.0 | 6.4 | 0.00 | 0.00 | 0.00 | 36 | 1009.3 |
| 20260906003010 | 35 | 102 | 1.6 | 9.7 | 0.00 | 0.00 | 0.00 | 35 | 1009.3 |
| 20260906001508 | 35 | 148 | 1.6 | 9.7 | 0.00 | 0.00 | 0.00 | 35 | 1009.2 |
| 20260906000009 | 36 | 142 | 3.2 | 11.3 | 0.00 | 0.00 | 0.00 | 35 | 1009.1 |
| 20260905234507 | 36 | 125 | 4.8 | 12.9 | 0.00 | 0.00 | 0.00 | 34 | 1009.0 |
| 20260905233017 | 36 | 65 | 4.8 | 9.7 | 0.00 | 0.00 | 0.00 | 33 | 1009.1 |
| 20260905231505 | 36 | 99 | 3.2 | 14.5 | 0.00 | 0.00 | 0.00 | 34 | 1009.0 |
| 20260905230005 | 36 | 127 | 4.8 | 14.5 | 0.00 | 0.00 | 0.00 | 32 | 1009.0 |